DW5891 Weather Reports


time (UTC)temp
C
wind
direction
speed
KPH
gust
KPH
rain 1hr
cm
rain 24hr
cm
rain mn
cm
humidity
%
barometer
mb
20260504034531 15 346 19.3 0.0 0.00 0.00 0.00 40 992.9
20260504033034 16 340 30.6 0.0 0.00 0.00 0.00 38 992.6
20260504031530 17 342 37.0 0.0 0.00 0.00 0.00 36 992.2
20260504030032 18 281 17.7 0.0 0.00 0.00 0.00 34 991.4
20260504024529 18 270 19.3 0.0 0.00 0.00 0.00 33 991.3
20260504023028 19 261 19.3 0.0 0.00 0.00 0.00 33 991.1
20260504021527 20 293 19.3 0.0 0.00 0.00 0.00 33 991.0
20260504020028 20 269 22.5 0.0 0.00 0.00 0.00 33 991.0
20260504014536 21 279 25.7 0.0 0.00 0.00 0.00 32 990.9
20260504013026 21 296 27.4 0.0 0.00 0.00 0.00 31 990.9
20260504011527 22 270 30.6 0.0 0.00 0.00 0.00 27 990.8
20260504010027 22 273 29.0 0.0 0.00 0.00 0.00 24 990.9
20260504004524 22 248 25.7 0.0 0.00 0.00 0.00 24 991.0
20260504003030 23 251 27.4 0.0 0.00 0.00 0.00 23 991.1
20260504001522 23 253 27.4 0.0 0.00 0.00 0.00 24 991.2
20260504000020 23 261 30.6 0.0 0.00 0.00 0.00 22 991.5
20260503234519 23 244 32.2 0.0 0.00 0.00 0.00 22 991.7
20260503233017 23 259 30.6 0.0 0.00 0.00 0.00 21 991.7
20260503231518 24 236 32.2 0.0 0.00 0.00 0.00 21 991.9
20260503230014 23 246 25.7 0.0 0.00 0.00 0.00 26 992.1
20260503224515 23 223 27.4 0.0 0.00 0.00 0.00 25 992.3
20260503223009 23 221 27.4 0.0 0.00 0.00 0.00 24 992.7
20260503221506 23 219 27.4 0.0 0.00 0.00 0.00 26 993.1
20260503220005 22 255 27.4 0.0 0.00 0.00 0.00 25 993.6
20260503214502 23 231 25.7 0.0 0.00 0.00 0.00 24 993.8
20260503213100 22 227 25.7 0.0 0.00 0.00 0.00 24 994.4
20260503211557 22 241 22.5 0.0 0.00 0.00 0.00 26 994.7
20260503210057 22 215 25.7 0.0 0.00 0.00 0.00 27 994.9
20260503204601 22 235 25.7 0.0 0.00 0.00 0.00 29 995.1
20260503203056 21 250 29.0 0.0 0.00 0.00 0.00 27 995.3
20260503201552 22 223 27.4 0.0 0.00 0.00 0.00 31 995.4
20260503200050 22 215 24.1 0.0 0.00 0.00 0.00 29 995.6
20260503194548 22 221 25.7 0.0 0.00 0.00 0.00 28 996.0
20260503193048 22 231 30.6 0.0 0.00 0.00 0.00 30 996.3
20260503191543 22 234 32.2 0.0 0.00 0.00 0.00 31 996.6
20260503190046 21 236 29.0 0.0 0.00 0.00 0.00 33 997.0
20260503184542 21 248 33.8 0.0 0.00 0.00 0.00 33 997.4
20260503183037 21 230 30.6 0.0 0.00 0.00 0.00 33 997.8
20260503181534 21 270 30.6 0.0 0.00 0.00 0.00 32 998.1
20260503180044 21 213 29.0 0.0 0.00 0.00 0.00 33 998.4
20260503174532 20 232 35.4 0.0 0.00 0.00 0.00 34 998.8
20260503173028 20 245 30.6 0.0 0.00 0.00 0.00 33 999.1
20260503171528 20 221 29.0 0.0 0.00 0.00 0.00 36 999.2
20260503081517 5 161 9.7 0.0 0.00 0.00 0.00 66 1003.7
20260503071510 5 159 8.0 0.0 0.00 0.00 0.00 64 1003.9
20260503060113 3 172 4.8 0.0 0.00 0.00 0.00 73 1003.9
20260503054619 3 165 4.8 0.0 0.00 0.00 0.00 74 1003.9
20260503053053 3 165 4.8 0.0 0.00 0.00 0.00 74 1003.9
20260503051551 3 167 3.2 0.0 0.00 0.00 0.00 73 1003.9
20260503050050 3 168 4.8 0.0 0.00 0.00 0.00 73 1003.9
20260503044549 3 169 6.4 0.0 0.00 0.00 0.00 72 1004.1
20260503043050 4 169 6.4 0.0 0.00 0.00 0.00 71 1004.1
20260503041544 5 161 3.2 0.0 0.00 0.00 0.00 69 1004.0
20260503040052 5 159 4.8 0.0 0.00 0.00 0.00 67 1004.0